EW1556 Weather Reports


Display with metric or nautical units.
time (UTC)temp
F
wind
direction
speed
MPH
gust
MPH
rain 1hr
in
rain 24hr
in
rain mn
in
humidity
%
barometer
mb
20260905093058 52 268 1.0 2.0 0.00 0.00 0.00 78 1016.0
20260905091613 52 285 1.0 3.0 0.00 0.00 0.00 78 1016.0
20260905090054 52 291 2.0 3.0 0.00 0.00 0.00 79 1016.0
20260905084553 51 271 0.0 0.0 0.00 0.00 0.00 80 1016.0
20260905083050 52 286 2.0 5.0 0.00 0.00 0.00 79 1016.0
20260905081547 51 287 1.0 3.0 0.00 0.00 0.00 81 1015.9
20260905080045 50 243 0.0 1.0 0.00 0.00 0.00 82 1015.8
20260905074553 50 242 0.0 2.0 0.00 0.00 0.00 82 1015.6
20260905073057 49 242 1.0 3.0 0.00 0.00 0.00 84 1015.5
20260905071537 49 280 2.0 3.0 0.00 0.00 0.00 83 1015.3
20260905070034 49 304 1.0 3.0 0.00 0.00 0.00 83 1015.2
20260905064533 49 290 2.0 3.0 0.00 0.00 0.00 83 1015.1
20260905063031 49 298 1.0 2.0 0.00 0.00 0.00 83 1014.8
20260905061530 50 285 2.0 3.0 0.00 0.00 0.00 81 1014.8
20260905060029 51 286 2.0 3.0 0.00 0.00 0.00 81 1014.8
20260905054529 51 283 1.0 3.0 0.00 0.00 0.00 80 1014.9
20260905053034 53 285 3.0 5.0 0.00 0.00 0.00 79 1014.9
20260905051528 53 286 3.0 3.0 0.00 0.00 0.00 77 1014.8
20260905050034 54 281 2.0 3.0 0.00 0.00 0.00 75 1014.8
20260905044527 56 285 2.0 2.0 0.00 0.00 0.00 72 1014.8
20260905043028 56 287 1.0 2.0 0.00 0.00 0.00 72 1014.8
20260905041525 56 260 0.0 1.0 0.00 0.00 0.00 74 1014.7
20260905040025 56 248 1.0 3.0 0.00 0.00 0.00 73 1014.6
20260905034522 54 275 0.0 2.0 0.00 0.00 0.00 90 1014.4
20260905033030 53 295 2.0 4.0 0.00 0.00 0.00 89 1014.2
20260905031523 58 316 3.0 6.0 0.00 0.00 0.00 63 1014.0
20260905030014 58 271 4.0 7.0 0.00 0.01 0.00 61 1013.9
20260905024513 58 258 5.0 8.0 0.00 0.01 0.00 61 1013.7
20260905023037 59 269 5.0 7.0 0.00 0.01 0.00 59 1013.7
20260905021513 59 289 5.0 8.0 0.00 0.01 0.00 57 1013.7
20260905020016 60 269 5.0 9.0 0.00 0.01 0.00 54 1013.4
20260905014508 61 282 6.0 10.0 0.00 0.01 0.00 55 1013.3
20260905013007 62 274 8.0 11.0 0.00 0.01 0.00 53 1013.3
20260905011505 62 280 8.0 12.0 0.00 0.01 0.00 53 1013.1
20260905010004 64 293 8.0 12.0 0.00 0.01 0.00 51 1013.0
20260905004502 64 282 7.0 11.0 0.00 0.01 0.00 47 1013.0
20260905003059 65 293 6.0 12.0 0.00 0.01 0.00 46 1012.8
20260905001606 64 266 5.0 8.0 0.00 0.01 0.00 45 1012.7
20260905000113 64 287 3.0 6.0 0.00 0.01 0.00 45 1012.6
20260904234555 64 298 2.0 7.0 0.00 0.01 0.00 46 1012.6
20260904233055 64 307 0.0 7.0 0.00 0.01 0.00 46 1012.6
20260904231559 64 326 2.0 9.0 0.00 0.01 0.00 45 1012.6
20260904230054 63 333 5.0 8.0 0.00 0.01 0.00 48 1012.6
20260904224601 63 326 6.0 10.0 0.00 0.01 0.00 51 1012.6
20260904223056 64 274 5.0 13.0 0.00 0.01 0.00 49 1012.5
20260904221552 63 289 9.0 14.0 0.00 0.01 0.00 54 1012.6
20260904220110 62 279 9.0 13.0 0.00 0.01 0.00 52 1012.7
20260904214550 62 287 7.0 11.0 0.00 0.01 0.00 51 1012.6
20260904213050 64 300 6.0 9.0 0.00 0.01 0.00 45 1012.4
20260904211557 65 94 2.0 7.0 0.00 0.01 0.00 40 1012.2
20260904210100 65 131 2.0 11.0 0.00 0.01 0.00 40 1012.3
20260904204550 65 133 4.0 8.0 0.00 0.01 0.00 40 1012.3
20260904203049 66 130 6.0 12.0 0.00 0.01 0.00 40 1012.2
20260904201547 66 122 6.0 11.0 0.00 0.01 0.00 39 1012.3
20260904200045 65 141 3.0 11.0 0.00 0.01 0.00 43 1012.3
20260904194553 64 340 5.0 7.0 0.00 0.01 0.00 43 1012.2
20260904193044 65 301 2.0 8.0 0.00 0.01 0.00 43 1012.3
20260904191547 65 132 0.0 6.0 0.00 0.01 0.00 43 1012.4
20260904190040 64 280 4.0 10.0 0.00 0.01 0.00 49 1012.6
20260904184546 63 69 1.0 5.0 0.00 0.01 0.00 51 1012.6
20260904183040 64 58 5.0 8.0 0.00 0.01 0.00 50 1012.7
20260904181535 62 162 1.0 9.0 0.00 0.01 0.00 52 1012.8
20260904180032 62 236 3.0 8.0 0.00 0.01 0.00 53 1012.7
20260904174556 61 124 0.0 7.0 0.00 0.01 0.00 56 1012.6
20260904173026 59 53 0.0 7.0 0.00 0.01 0.00 59 1012.7
20260904171524 59 125 3.0 8.0 0.00 0.01 0.00 62 1012.7
20260904170023 58 155 1.0 8.0 0.00 0.01 0.00 65 1012.7
20260904164519 57 57 3.0 7.0 0.00 0.01 0.00 65 1012.7
20260904163016 57 121 0.0 8.0 0.00 0.01 0.00 66 1012.7
20260904161514 56 111 0.0 4.0 0.00 0.01 0.00 68 1012.8
20260904160010 55 330 2.0 5.0 0.00 0.01 0.00 74 1012.6
20260904154507 54 318 2.0 3.0 0.00 0.01 0.00 76 1012.7
20260904153006 54 15 1.0 3.0 0.00 0.01 0.00 73 1012.6
20260904151502 53 314 2.0 4.0 0.00 0.01 0.00 79 1012.4
20260904150059 52 305 2.0 4.0 0.00 0.01 0.00 80 1012.4
20260904144557 51 297 1.0 3.0 0.00 0.01 0.00 85 1012.2
20260904143056 50 296 1.0 3.0 0.00 0.01 0.00 86 1012.1
20260904141554 0 0.0 0.0 0.00 0.01 0.00 1012.1
20260904140051 0 0.0 0.0 0.00 0.01 0.00 1011.9
20260904134547 0 0.0 0.0 0.00 0.01 0.00 1011.8
20260904133046 0 0.0 0.0 0.00 0.01 0.00 1011.7
20260904131543 47 271 0.0 0.0 0.00 0.01 0.00 86 1011.7
20260904130039 48 276 0.0 0.0 0.00 0.01 0.00 87 1011.4
20260904124541 48 279 0.0 0.0 0.00 0.01 0.00 87 1011.3
20260904123053 48 275 0.0 0.0 0.00 0.01 0.00 86 1011.2
20260904121535 49 274 0.0 0.0 0.00 0.01 0.00 86 1011.0
20260904120038 48 274 0.0 0.0 0.00 0.01 0.00 86 1011.0
20260904114533 48 274 0.0 0.0 0.00 0.01 0.00 85 1011.0
20260904113039 48 274 0.0 0.0 0.00 0.01 0.00 86 1011.0
20260904111530 48 274 0.0 0.0 0.00 0.01 0.00 85 1010.9
20260904110037 48 274 0.0 0.0 0.00 0.01 0.00 85 1010.7
20260904104527 48 274 0.0 0.0 0.00 0.01 0.00 85 1010.7
20260904103026 48 274 0.0 0.0 0.00 0.01 0.00 84 1010.6
20260904101525 48 274 0.0 2.0 0.00 0.01 0.00 83 1010.6
20260904100022 49 292 0.0 0.0 0.00 0.01 0.00 81 1010.5
20260904094521 49 316 0.0 2.0 0.00 0.01 0.00 79 1010.4